Torna al catalogo

IGS 6A

AttivoMilitarePO
NORAD 37813·PAYLOAD·🇯🇵 Japan

Lanciato Sep 23, 2011 da Tanegashima Space Center

Loading…

Prossimi Passaggi (prossime 24 ore)

TLE

ObsoletoSource: Mike McCants

Epoca: Mar 28, 2026, 19:17 UTC

1 37813U 11050A   26087.80366954 0.00005100  00000-0  30094-3 0    01
2 37813  98.0387 273.9482 0006512 346.6927  13.3071 15.11576046    06

Traccia IGS 6A in tempo reale con AllMySat

Download on the App Store